Tracking 32964 objects as of 20-Jan-2026
HD Live streaming from Space Station
objects crossing your sky now

COSMOS 1823 DEB

Track COSMOS 1823 DEB now!
10-day predictions


NORAD ID: 18737
Int'l Code: 1987-020Q
Perigee: 1,485.9 km
Apogee: 1,528.4 km
Inclination: 73.6 °
Period: 116.0 minutes
Semi major axis: 7878 km
RCS: 0.232 m2 (medium)
Launch date: February 20, 1987
Source: Commonwealth of Independent States (former USSR) (CIS)
Launch site: PLESETSK MISSILE AND SPACE COMPLEX (PKMTR)

Note: This is SATELLITE DEBRIS
Your satellite tracking list
Your tracking list is empty




NASA's NSSDC Master Catalog

Two Line Element Set (TLE):
1 18737U 87020Q   26020.04599824  .00000013  00000-0  22403-3 0  9992
2 18737  73.6020 240.1932 0027019  88.3954  65.9505 12.41555054726246
Source of the keplerian elements: AFSPC